sat.trackr.live / text

‹ back to catalog

STARLINK-31608

NORAD 59397 · 2024-062X

PAYLOAD ACTIVE UNKNOWN

§ Identity

Operator
Country
US
Launch date
2024-04-02
Launch site
AFWTR
Launch vehicle
Mass (kg)
RCS (m²)

Purposes: comms

External: N2YO · Heavens-Above · Gunter

§ Orbital elements

Epoch: 2026-09-21T17:07:06.740544Z

Period
93.85 min
Inclination
53.1611°
Eccentricity
0.0000731
Mean motion
15.34393418 rev/d
Perigee alt
462.2 km
Apogee alt
463.2 km
Semi-major
6,840.9 km
B*
1.8459e-5
RAAN
62.3056°
Arg perigee
77.3951°
Mean anomaly
282.7133°
Rev number
13,967

§ Raw data

STARLINK-316081 59397U 24062X   26264.71327246  .00000248  00000+0  18459-4 0  99932 59397  53.1611  62.3056 0000731  77.3951 282.7133 15.34393418139670

JSON: /api/v1/satellites/59397 · /tle

For live sub-satellite position, see the globe view (requires WebGL).

§ Visibility from observer

Set your observer location to see the next 7 days of passes ≥ 10°. The values pass through the URL so the page stays shareable.

No JS? Fill the form by hand. The geolocation button needs JavaScript.